Location: Unspecified
(0.0000°N, 0.0000°E)
Time: 05:36:53
(UTC+00:00)

Explorer 7 - Pass Details

Date: 04 October 2020
Orbit: 484 x 678 km, 50.3° (Epoch: 28 October)

Event Time Altitude Azimuth Distance (km) Brightness Sun altitude
Rises 06:26:04 0° 357° (N) 3,008 10.5 9.3°
Reaches altitude 10° 06:29:51 10° 26° (NNE) 2,081 10.1 10.3°
Maximum altitude 06:31:51 12° 51° (NE) 1,910 10.4 10.8°
Drops below altitude 10° 06:33:49 10° 76° (ENE) 2,054 11.5 11.3°
Sets 06:37:29 0° 105° (ESE) 2,928 12.4 12.2°
